OBJECT D, 60748

Orbit data source: Space-Track

You're viewing an Uncataloged Satellite

Recently launched and/or uncataloged satellites may have evolving metadata. Metadata may include but not limited to: Owner, Maufacturer, Bus, Motor, and Mission.

OBJECT D, 60748 is a Chinese satellite in SSO that was launched on Thu, 29 Aug 2024 UTC via a GUSHENXING 1 launch vehicle from the Yellow Sea Launch Area, China (YSLA). Unknown objects in Earth's orbit typically refer to objects detected orbiting the Earth but have not yet been identified or cataloged. These objects could be anything from previously untracked satellites, spent rocket stages, debris from satellite collisions, or even natural meteoroids temporarily captured by Earth's gravity.

Loading next visibility...
Identifier
60748, 2024-153D
Orbit
SSO
Last TLE update
5 hours ago
Origin
Flag of CNJTXZ (CN / PRC)
Manufacturer
JTXZ
Mission
Operational Commercial Imaging
Bus & Motor
JTX, Unknown motor
Mass
~50 kg wet, ~50 kg dry
Launch date (UTC)
2024-08-29 (10 months ago)
Launch vehicle
GUSHENXING 1
Launch site
Yellow Sea Launch Area, China (YSLA)
Object type
Unknown
Shape & HBR
Box + 1 Pan, 5 m
Radar Cross Section
5.339 m², Medium (>0.1 m² and < 1m²)

Expand to show TLE details & history

TLE from 5 hours ago
0 OBJECT D
1 60748U 24153D   25182.21251475  .00012579  00000-0  50658-3 0  9996
2 60748  97.6426 308.1470 0011568 309.4524  50.5688 15.24948353 46424
Epoch: 2025-07-01T05:06Z
TLE epoch observation values (Epoch: 2025-07-01T05:06:01.274Z)
Latitude
-0.0001°
Longitude
-47.8695°
Altitude
488.988 km
Speed
7.623 km/s
True Right ascension
20h 32m 35s
True Declination
0° 00' 00"
Sunlit
Object was in full shadow at epoch
Visualization orbit readout
Latitude
73.65383°
Longitude
-74.71893°
Altitude
508.319 km
Speed
7.614 km/s
Apparent Right ascension
11h 13m 22s
Apparent Declination
33° 29' 07"
Sunlit
Object is in daylight
Visualization observer readout
Local Sidereal Time
21:47:39
Azimuth
341.699° N
Elevation
-13.972°
Doppler factor
1
Orbital elements
Apogee altitude
495.853 km
Perigee altitude
479.967 km
Semi-major axis
6,866.047 km
Eccentricity
0.00116
Inclination
97.6426°
RAAN
308.147°
Arg. of periapsis
309.4524°
True anomaly
Unknown
Mean anomaly
50.5688°
Eccentric anomaly
Unknown
Mean motion
3.8149 °/min
Orbital period
94.37 mins
BSTAR
0.00050658
Loading maneuver chart data...
Loading SW <> Apogee altitude chart data...
Loading historical data...
Loading historical data...
Loading historical data...
Loading historical data...
Loading historical data...
Loading historical data...
Loading historical data...

OBJECT D Visibility forecast

Observer location: undefined°, undefined°

Span
Click to sort rows by Start time (UTC) header in descending order
Start Az.
Max El. time (UTC)
Max El. Az.
Max El.
End time (UTC)
End Az.
6 mins2025-07-01 21:24:15.251Z7.614° NNE2025-07-01 21:27:15.251Z319.881° NNW43.113°2025-07-01 21:30:15.251Z200.947° SSW
5 mins2025-07-02 08:01:15.251Z129.915° SE2025-07-02 08:03:15.251Z71.468° E31.844°2025-07-02 08:06:15.251Z6.016° NNE
|